COSMOS 1809

Satellite information

Favourite Embed

Satellite Type and Status

PAYLOADIN ORBIT

Key statistics

Satellite COSMOS 1809 at a glance.

Uptime

14081

Days in orbit

Revolutions

≈ 13.8

Per day

Orbit

LEO

Low Earth Orbit

Inclination

82.5

Latest

Satellite identification and parameters

Extended collection of information and parameters for COSMOS 1809.

Object identification

Identified? True

Debris? False

Object name: COSMOS 1809

International designator: 1986-101A

Object number (NORAD): 17241

Object ID (CCSDS): 17241

Country: COMMONWEALTH OF INDEPENDENT STATES (CIS)

Current information (Y/N): Y

RCS size: LARGE

Orbital parameters

Period: 104.013 minutes

Inclination: 82.5289 deg

SMA: 7326.309 km

Apoapsis: 960.328 km

Periapsis: 936.02 km

RAAN: 195.9421 deg

Eccentricy: 0.0016589

Argument of periapsis: 54.5413 deg

Mean anomaly: 60.2581 deg

Mean motion: 13.84442449 rev/day

Mean motion (dot): 0.00000063 rev/day2

B* drag term: 0.000042875 1/REarth

Two-line elements (TLE)

Creation date: July 6, 2025, 6:05 p.m.

Reference frame: TEME

Reference center: EARTH

Epoch: July 6, 2025, 1:19 p.m. UTC

TLE line 0: 0 COSMOS 1809

TLE line 1: 1 17241U 86101A 25187.55541595 .00000063 00000-0 42875-4 0 9992

TLE line 2: 2 17241 82.5289 195.9421 0016589 54.5413 60.2581 13.84442449947008

Live tracking on map

Real-time ground track for satellite COSMOS 1809.

In-orbit conjunctions

A list of the most updated potential collisions computed for object COSMOS 1809.

Target Orbit TCA Probability of collision Miss distance Type
COSMOS 2251 DEB LEO 2024-09-07 02:41:15 0.0003170453 231.0 (m) DEBRIS
FENGYUN 1C DEB SSO 2024-08-25 15:39:09 0.0003667283 639.0 (m) DEBRIS

Associated space launch

Ionospheric research satellite

COSMOS 1809 was lifted into orbit during the mission ‘Tsiklon-3 | Ionozond-E’, on board a Tsiklon-3 space rocket.

The launch took place on Dec. 18, 1986, 8 a.m. from 32/2.

For more information about the launch, click the button.

Launch to space Tsiklon-3 | Ionozond-E
Tsiklon-3 | Ionozond-E

Agency: N/A

Status: Launch Successful

Launch date: Dec. 18, 1986, 8 a.m. UTC

Rocket: Tsiklon-3

Launch pad: 32/2

Location: Plesetsk Cosmodrome, Russian Federation

...

Latest news about this satellite

There are no fresh news available about this satellite. Check back as we update our databases every day.


Newsletter sign-up

Weekly statistics, charts and insights to help you stay on top of the space industry.